Location: Blackpool
(53.8200°N, 3.0410°W)
Time: 14:10:59
(UTC+00:00)

N. Korean satellite - Visible Passes

Search period start: 15 December 2017 00:00
Search period end: 25 December 2017 00:00
Orbit: 461 x 513 km, 97.2° (Epoch: 14 December)

Date Brightness Start Highest point End Pass type
(mag) Time Alt. Az. Time Alt. Az. Time Alt. Az.
15 Dec 6.8 07:10:55 10° NNE 07:14:41 82° ESE 07:18:22 10° SSW visible
15 Dec 6.5 17:52:59 10° SSE 17:56:44 84° ENE 18:00:32 10° NNW visible
15 Dec 10.1 19:29:23 10° WSW 19:30:49 12° W 19:32:15 10° WNW visible
16 Dec 7.9 06:47:26 10° NNE 06:51:04 45° E 06:54:36 10° S visible
16 Dec 6.8 17:29:35 10° SE 17:33:13 48° ENE 17:36:52 10° N visible
16 Dec 9.4 19:04:12 10° SW 19:06:59 19° W 19:09:47 10° NW visible
17 Dec 9.0 06:24:09 10° NE 06:27:21 26° E 06:30:30 10° SSE visible
17 Dec 7.5 17:06:29 10° SE 17:09:46 29° ENE 17:13:04 10° N visible
17 Dec 8.5 18:39:50 10° SSW 18:43:14 32° W 18:46:40 10° NNW visible
18 Dec 9.8 06:01:12 10° NE 06:03:34 16° E 06:05:54 10° SE visible
18 Dec 6.7 07:33:47 10° N 07:37:27 57° WNW 07:41:03 10° SSW visible
18 Dec 8.1 16:43:42 10° ESE 16:46:23 19° ENE 16:49:05 10° NNE visible
18 Dec 7.4 18:15:52 10° S 18:19:34 56° W 18:23:18 10° NNW visible
19 Dec 6.7 07:10:09 10° NNE 07:13:54 81° ESE 07:17:33 10° SSW visible
19 Dec 6.6 17:52:13 10° SSE 17:55:58 83° ENE 17:59:46 10° NNW visible
19 Dec 10.1 19:28:32 10° WSW 19:30:02 12° W 19:31:31 10° WNW visible
20 Dec 7.9 06:46:41 10° NNE 06:50:16 44° E 06:53:46 10° S visible
20 Dec 6.9 17:28:49 10° SE 17:32:26 48° ENE 17:36:05 10° N visible
20 Dec 9.4 19:03:24 10° SW 19:06:11 20° W 19:09:01 10° NW visible
21 Dec 9.0 06:23:23 10° NE 06:26:33 26° E 06:29:38 10° SSE visible
21 Dec 7.5 17:05:42 10° SE 17:08:59 29° ENE 17:12:16 10° N visible
21 Dec 8.5 18:39:01 10° SSW 18:42:26 32° W 18:45:53 10° NNW visible
22 Dec 9.8 06:00:27 10° NE 06:02:45 16° E 06:05:00 10° SE visible
22 Dec 6.7 07:32:59 10° N 07:36:38 58° WNW 07:40:11 10° SSW visible
22 Dec 8.1 16:42:54 10° ESE 16:45:35 19° ENE 16:48:15 10° NNE visible
22 Dec 7.3 18:15:03 10° S 18:18:46 56° W 18:22:29 10° NNW visible
23 Dec 6.7 07:09:22 10° NNE 07:13:04 79° ESE 07:16:41 10° S visible
23 Dec 6.5 17:51:23 10° SSE 17:55:09 83° ENE 17:58:56 10° NNW visible
23 Dec 10.1 19:27:40 10° WSW 19:29:12 12° W 19:30:44 10° WNW visible
24 Dec 7.9 06:45:53 10° NNE 06:49:25 43° E 06:52:52 10° S visible
24 Dec 6.9 17:27:59 10° SE 17:31:36 47° ENE 17:35:14 10° N visible
24 Dec 9.4 19:02:32 10° SW 19:05:21 20° W 19:08:11 10° NW visible
